TimeHST,TemperatureF,Dew PointF,Humidity,Sea Level PressureIn,VisibilityMPH,Wind Direction,Wind SpeedMPH,Gust SpeedMPH,PrecipitationIn,Events,Conditions,WindDirDegrees,DateUTC
12:53 AM,75.0,66.9,76,29.98,10.0,SE,8.1,-,N/A,,Clear,130,2013-12-11 10:53:00
1:53 AM,75.0,66.9,76,29.97,10.0,ESE,12.7,-,N/A,,Clear,120,2013-12-11 11:53:00
2:53 AM,73.9,66.9,79,29.95,10.0,ESE,8.1,-,N/A,,Clear,120,2013-12-11 12:53:00
3:53 AM,73.0,66.0,79,29.95,10.0,ENE,6.9,-,N/A,,Clear,70,2013-12-11 13:53:00
4:53 AM,73.0,64.0,73,29.95,10.0,East,5.8,-,N/A,,Clear,80,2013-12-11 14:53:00
5:53 AM,72.0,64.9,78,29.96,10.0,East,4.6,-,N/A,,Clear,90,2013-12-11 15:53:00
6:53 AM,72.0,64.9,78,29.97,10.0,East,5.8,-,N/A,,Clear,90,2013-12-11 16:53:00
7:53 AM,75.0,66.0,73,29.99,10.0,East,5.8,-,N/A,,Clear,100,2013-12-11 17:53:00
8:53 AM,80.1,66.9,64,30.00,10.0,SSE,8.1,-,N/A,,Clear,150,2013-12-11 18:53:00
9:53 AM,80.1,69.1,69,30.01,10.0,South,6.9,-,N/A,,Clear,170,2013-12-11 19:53:00
10:53 AM,81.0,70.0,69,30.00,10.0,South,10.4,-,N/A,,Clear,180,2013-12-11 20:53:00
11:53 AM,82.9,70.0,65,29.98,10.0,SSW,10.4,-,N/A,,Clear,200,2013-12-11 21:53:00
12:53 PM,82.0,70.0,67,29.95,10.0,SSW,11.5,-,N/A,,Clear,200,2013-12-11 22:53:00
1:53 PM,82.0,69.1,65,29.93,10.0,SW,10.4,-,N/A,,Mostly Cloudy,220,2013-12-11 23:53:00
2:53 PM,82.0,69.1,65,29.93,10.0,South,8.1,-,N/A,,Partly Cloudy,180,2013-12-12 00:53:00
3:53 PM,81.0,69.1,67,29.93,10.0,SSW,9.2,-,N/A,,Partly Cloudy,200,2013-12-12 01:53:00
4:53 PM,80.1,69.1,69,29.94,10.0,West,4.6,-,N/A,,Scattered Clouds,260,2013-12-12 02:53:00
5:53 PM,79.0,69.1,72,29.95,10.0,Calm,Calm,-,N/A,,Overcast,0,2013-12-12 03:53:00
6:53 PM,78.1,69.1,74,29.97,10.0,Calm,Calm,-,N/A,,Overcast,0,2013-12-12 04:53:00
7:53 PM,79.0,69.1,72,29.99,10.0,North,5.8,-,N/A,,Overcast,350,2013-12-12 05:53:00
8:53 PM,77.0,66.9,71,29.99,10.0,North,5.8,-,N/A,,Mostly Cloudy,10,2013-12-12 06:53:00
9:02 PM,78.8,64.4,61,29.99,10.0,Calm,Calm,-,N/A,,Mostly Cloudy,0,2013-12-12 07:02:00
9:53 PM,77.0,64.9,66,30.00,10.0,ENE,3.5,-,N/A,,Clear,60,2013-12-12 07:53:00
10:53 PM,75.9,64.9,69,30.00,10.0,ESE,4.6,-,N/A,,Clear,110,2013-12-12 08:53:00
11:53 PM,75.9,66.0,71,29.99,10.0,ESE,8.1,-,N/A,,Overcast,110,2013-12-12 09:53:00